Tracking 33181 objects as of 19-Feb-2026
HD Live streaming from Space Station
objects crossing your sky now

OBJECT C

Track OBJECT C now!
10-day predictions


NORAD ID: 60014
Int'l Code: 2024-110C
Perigee: 572.3 km
Apogee: 589.0 km
Inclination: 97.6 °
Period: 96.1 minutes
Semi major axis: 6951 km
RCS: Unknown
Launch date: June 6, 2024
Source: People's Republic of China (PRC)
Launch site: Jiuquan Satellite Launch Center, China (JSC)
Your satellite tracking list
Your tracking list is empty




NASA's NSSDC Master Catalog

Two Line Element Set (TLE):
1 60014U 24110C   26050.21758073  .00001778  00000-0  15573-3 0  9992
2 60014  97.5542 129.3474 0012012 178.5650 181.5609 14.97859451 84143
Source of the keplerian elements: AFSPC